STARLINK-36463, 67315

Orbit data source: Space-Track

STARLINK-36463, 67315 is a payload satellite owned by SpaceX/Seattle (US) in LEO that was launched on Sun, 04 Jan 2026 UTC via an FALCON 9 launch vehicle from the Air Force Eastern Test Range (AFETR). Payload-class satellites include a variety of spacecraft equipped with specific instruments for various scientific and technological missions. These include communications satellites like Starlink; space stations such as the ISS; scientific satellites like the Hubble; Earth observation satellites from companies like Planet Labs, Umbra, and HawkEye 360; GPS; miniature CubeSats for education and research; and military/defense satellites.

Loading next visibility...
Identifier
67315, 2026-002L
Orbit
LEO
Country
Flag of USUS
Related business
Manufacturer
SpaceX/Seattle
Mission
Operational Commercial Communications
Bus & Motor
STARLINK V2MO, Unknown motor
Mass
575 kg wet, ~530 kg dry
Launch date (UTC)
2026-01-04 (2 months ago)
Launch vehicle
FALCON 9
Launch site
Air Force Eastern Test Range (AFETR)
Object type
Payload
Rocket body
Debris
Shape & HBR
Box + 2 Pan, 17.7 m
Radar Cross Section
36.964 m²

Expand to show TLE details & history
Last TLE update: 1 day ago

TLE from 1 day ago
0 STARLINK-36463
1 67315U 26002L   26062.23037290  .00029064  00000-0  10607-2 0  9991
2 67315  43.0032   1.5197 0001459 256.9397 103.1292 15.27606847 10150
Epoch: 2026-03-03T05:31Z
TLE epoch observation values (Epoch: 2026-03-03T05:31:44.218Z)
Latitude
-0.00001°
Longitude
117.57303°
Altitude
482.972 km
Speed
7.626 km/s
True Right ascension
00h 06m 04s
True Declination
0° 00' 00"
Sunlit
Object was in daylight at epoch
Visualization orbit readout
Latitude
Unknown
Longitude
Unknown
Altitude
Unknown
Speed
Unknown
Apparent Right ascension
Unknown
Apparent Declination
Unknown
Sunlit
N/A
Visualization observer readout
Local Sidereal Time
09:14:49
Azimuth
Unknown
Elevation
Unknown
Doppler factor
Unknown
Orbital elements
Apogee altitude
485.915 km
Perigee altitude
483.912 km
Semi-major axis
6,863.05 km
Eccentricity
0.00015
Inclination
43.0032°
RAAN
1.5197°
Arg. of periapsis
256.9397°
True anomaly
103.14548°
Mean anomaly
103.1292°
Eccentric anomaly
103.13734°
Mean motion
3.8174 °/min
Orbital period
94.31 mins
BSTAR
0.0010607
Loading maneuver chart data...
Computing Atmospheric mass density...
Loading historical data...
Loading historical data...
Loading historical data...
Loading historical data...
Loading historical data...
Loading historical data...
Loading historical data...

Documentation

Showing up to 5 results
|